{"data":{"norad_id":54778,"epoch":"2026-05-25T03:56:11.719392Z","epoch_age_seconds":58057,"freshness":"FRESH","line1":"1 54778U 22175W   26145.16402453 -.00000514  00000+0 -14234-4 0  9990","line2":"2 54778  53.2119  45.8791 0001399  79.9300 280.1850 15.08839615191672","mean_motion":15.08839615,"eccentricity":0.0001399,"inclination_deg":53.2119,"raan_deg":45.8791,"arg_perigee_deg":79.93,"mean_anomaly_deg":280.185,"bstar":-1.4234e-5,"rev_number":19167,"period_min":95.437579029896,"perigee_km":538.77675412428,"apogee_km":540.71237738638,"semimajor_km":6917.8815657553,"source":"CELESTRAK","updated_at":"2026-05-25T13:38:17.692143Z"}}